Weather Roundup
Issued by NWS Corpus Christi, TX

Home | Current Version | Previous Version | Text Only | Print | Product List | Glossary On
Versions: 1 2 3 4 5 6 7 8 9 10 11 12 13 14 15 16 17 18 19 20 21 22 23 24 25 26 27 28 29 30 31 32 33 34 35 36 37 38 39 40 41 42 43 44 45 46 47 48 49 50
000
ASUS44 KCRP 231410
HRRCRP

SOUTH TEXAS REGIONAL WEATHER ROUNDUP
NATIONAL WEATHER SERVICE CORPUS CHRISTI TX
900 AM CDT THU OCT 23 2014


TXZ229>244-231500-
...CORPUS CHRISTI AREA OBSERVATIONS...

CITY           SKY/WX    TMP DP  RH WIND       PRES   REMARKS
CORPUS CHRISTI PTSUNNY   68  64  87 N10       30.09R
NAS CORPUS CHR PTSUNNY   71  69  93 N14       30.08R
ROCKPORT       MOSUNNY   68  62  81 N12       30.10R
KINGSVILLE NAS PTSUNNY   67  65  93 N7        30.09R
ALICE          PTSUNNY   68  64  87 NE8       30.09R
FALFURRIAS     PTSUNNY   66  64  91 N6        30.08R
$$

...VICTORIA AREA OBSERVATIONS...

CITY           SKY/WX    TMP DP  RH WIND       PRES   REMARKS
VICTORIA       CLOUDY    66  61  84 NE6       30.11R
BEEVILLE       FAIR      70  62  77 NE5       30.10R
PLEASANTON     PTSUNNY   67  65  91 CALM      30.13R
SAN ANTONIO    PTSUNNY   70  66  87 N3        30.13R
$$

...LAREDO AREA OBSERVATIONS...

CITY           SKY/WX    TMP DP  RH WIND       PRES   REMARKS
LAREDO         CLOUDY    71  65  81 NE7       30.12R
COTULLA        PTSUNNY   70  64  81 E8        30.11R
DEL RIO        CLOUDY    65  63  93 E7        30.11R
MCALLEN        CLOUDY    72  66  81 N6        30.07R
HEBBRONVILLE   MOSUNNY   68  64  86 NE5       30.10R
$$

...OTHER TEXAS OBSERVATIONS...

CITY           SKY/WX    TMP DP  RH WIND       PRES   REMARKS
BROWNSVILLE    MOSUNNY   73  69  87 NW5       30.05R
HOUSTON        CLOUDY    61  54  77 E7        30.11R
COL. STATION   CLOUDY    65  54  67 E5        30.14R
AUSTIN         PTSUNNY   66  63  90 E5        30.13R
WACO           MOSUNNY   64  59  83 E3        30.15R
FORT WORTH     CLOUDY    64  56  75 SE5       30.15R
WICHITA FALLS  SUNNY     63  59  87 CALM      30.12R
LUBBOCK        FOG       52  51  97 SW7       30.15R VSB 1/8
EL PASO        CLEAR     56  52  86 CALM      30.18R
$$

...MARINE OBSERVATIONS...

STATION/POSITION TIME  SKY/WX   TEMP    WIND        PRES    VSBY  WAVE   SWELL
                                AIR SEA DIR/SP/G                  HT/PER HT/PER
                 (UTC)          (F)     (DEG/KT/KT) (MB)    (MI)  (FT/S) (FT/S)
PORT ARANSAS     1400            72 77  360/ 12/ 14 1019.3R
BUOY 90 E PORT A 1400            77 81   50/ 10/ 12 1018.1R         4/ 7   3/ 7
BUOY 45 SE BAFFI NOT AVBL
BUOY 200 E PT IS 1400            79 81   60/ 16/ 17 1015.7R         6/ 8   5/ 8
BUOY 15 E GALVES 1400            72 78   70/ 14/ 16 1018.2          3/ 5   2/ 8
$$



USA.gov is the U.S. government's official web portal to all federal, state and local government web resources and services.